TimeCST,TemperatureF,Dew PointF,Humidity,Sea Level PressureIn,VisibilityMPH,Wind Direction,Wind SpeedMPH,Gust SpeedMPH,PrecipitationIn,Events,Conditions,WindDirDegrees,DateUTC
12:00 AM,81,78,90,29.90,12,ESE,3.5,,,,Partly Cloudy,120,2013-10-06 06:00:00
3:00 AM,80,78,92,29.86,12,ESE,3.5,,,,Partly Cloudy,120,2013-10-06 09:00:00
5:00 AM,78.8,77.0,94,29.83,6.2,Calm,Calm,-,N/A,,Mostly Cloudy,0,2013-10-06 11:00:00
6:00 AM,80,78,93,29.86,12,East,3.5,,,,Partly Cloudy,90,2013-10-06 12:00:00
6:00 AM,78.8,78.8,100,29.86,6.2,East,3.5,-,N/A,,Mostly Cloudy,90,2013-10-06 12:00:00
7:00 AM,80.6,78.8,94,29.86,3.1,ESE,4.6,-,N/A,Rain,Light Rain Showers,120,2013-10-06 13:00:00
8:00 AM,84.2,80.6,89,29.89,6.2,SSE,4.6,-,N/A,,Mostly Cloudy,150,2013-10-06 14:00:00
9:00 AM,86,79,75,29.90,11,ESE,5.8,,,,Partly Cloudy,120,2013-10-06 15:00:00
9:00 AM,86.0,78.8,79,29.90,6.2,ESE,5.8,-,N/A,,Mostly Cloudy,120,2013-10-06 15:00:00
10:00 AM,82.4,78.8,89,29.90,6.2,SSE,6.9,-,N/A,Rain,Light Rain Showers,160,2013-10-06 16:00:00
11:00 AM,84.2,78.8,84,29.89,6.2,South,3.5,-,N/A,Thunderstorm,Thunderstorm,170,2013-10-06 17:00:00
11:33 AM,84.2,78.8,84,29.87,6.2,SE,5.8,-,N/A,,Mostly Cloudy,140,2013-10-06 17:33:00
12:00 PM,86,80,78,29.88,11,East,4.6,,,,Partly Cloudy,90,2013-10-06 18:00:00
12:00 PM,86.0,80.6,84,29.87,6.2,East,4.6,-,N/A,,Mostly Cloudy,90,2013-10-06 18:00:00
1:00 PM,86.0,80.6,84,29.85,6.2,East,4.6,-,N/A,,Mostly Cloudy,100,2013-10-06 19:00:00
2:00 PM,87.8,78.8,75,29.83,6.2,East,6.9,-,N/A,,Mostly Cloudy,90,2013-10-06 20:00:00
3:00 PM,86,80,77,29.82,12,East,9.2,,,,Partly Cloudy,90,2013-10-06 21:00:00
3:00 PM,86.0,80.6,84,29.80,6.2,East,9.2,-,N/A,,Mostly Cloudy,90,2013-10-06 21:00:00
4:00 PM,86.0,78.8,79,29.80,6.2,East,8.1,-,N/A,,Mostly Cloudy,90,2013-10-06 22:00:00
5:00 PM,86.0,78.8,79,29.83,6.2,East,5.8,-,N/A,,Mostly Cloudy,90,2013-10-06 23:00:00
6:00 PM,84,77,75,29.83,12,East,4.6,,,,,90,2013-10-07 00:00:00
6:00 PM,84.2,77.0,79,29.83,6.2,East,4.6,-,N/A,,Mostly Cloudy,90,2013-10-07 00:00:00
9:00 PM,83,78,82,29.91,12,East,5.8,,,,Scattered Clouds,90,2013-10-07 03:00:00